Theta_e
326 337 337 334 337 336 337 340 340 340 339 339 337 336 336 333 332 333 333 334 334 335 337 335 335 335 337 336 330 326 324 322 321 322 325 328 331 333 334 334 336 336 336 335 334 332 332 330 328 327 325 323 322 321 322 322 322 323 325 326 327 327 327 327 329 331 330 329 329 329 328 327 327 327 327 329 329 331 333 335 337 338 337 332 330
326 335 335 334 337 335 337 340 340 340 340 340 340 340 339 336 337 337 336 335 334 335 337 335 335 335 337 337 331 326 323 320 319 319 320 323 328 332 333 332 333 334 334 334 334 333 331 330 329 327 325 325 324 322 322 322 322 322 322 323 324 325 326 326 328 329 329 327 327 327 328 327 326 325 325 326 326 327 331 336 338 338 337 337 334
324 332 334 333 336 335 336 338 340 340 339 341 340 341 341 339 340 339 338 337 336 336 337 336 335 335 337 338 333 326 321 321 319 319 320 320 323 326 330 331 331 332 333 333 333 333 332 331 329 327 325 325 325 325 323 321 321 322 321 321 321 321 323 324 325 326 325 323 326 330 330 330 327 326 327 325 324 322 323 327 333 337 337 337 337
322 332 332 333 336 334 334 337 340 340 340 341 340 340 340 340 340 340 340 339 338 337 337 336 335 335 335 337 334 325 320 321 320 320 320 321 321 322 326 328 329 330 332 333 333 333 332 331 330 329 326 324 324 325 325 324 322 321 320 320 320 320 320 321 322 323 323 323 328 334 333 332 329 329 331 329 327 324 321 320 323 330 334 336 338
323 333 332 332 335 334 334 336 340 341 340 340 340 340 340 340 340 341 340 340 338 337 336 336 336 334 334 334 330 322 320 321 321 321 321 321 321 321 323 326 329 328 331 332 333 333 331 331 330 329 328 325 322 322 323 325 325 323 323 321 321 321 320 320 319 319 320 324 330 334 333 332 332 332 333 333 330 327 325 323 321 321 325 330 335
325 334 335 333 334 335 334 335 337 340 340 340 340 340 339 340 340 341 340 339 338 335 334 336 335 333 333 331 326 322 321 322 322 322 321 322 321 322 323 326 327 327 330 332 333 332 330 330 328 327 328 326 321 319 319 320 322 323 323 323 323 322 322 322 321 318 315 322 330 332 331 332 333 332 332 334 333 330 327 325 324 323 321 323 328
325 334 338 335 335 335 334 335 336 338 339 339 340 340 340 340 340 341 340 339 337 334 334 335 334 334 334 330 325 322 322 322 322 322 321 321 321 321 323 325 326 327 330 332 332 330 328 326 325 326 328 325 321 319 318 317 316 316 318 321 323 323 324 323 323 318 312 319 327 330 332 332 333 333 331 331 332 330 329 327 325 325 323 322 322
325 332 339 338 338 336 334 336 336 337 338 339 340 340 340 340 340 340 340 338 336 333 334 336 335 334 335 332 325 323 324 322 322 322 322 322 321 321 324 325 326 329 330 330 329 327 324 321 322 326 327 325 321 320 319 316 313 312 312 314 317 319 319 318 317 312 310 319 326 328 330 331 331 333 332 329 329 328 327 326 325 324 325 323 322
323 329 337 339 338 335 334 336 337 337 337 338 339 339 339 340 340 340 339 337 335 333 334 335 335 334 335 332 326 325 325 323 323 323 323 324 321 322 325 324 326 330 329 328 327 324 319 316 318 323 324 322 320 319 317 314 312 311 310 310 311 313 312 312 310 308 317 323 324 322 324 330 330 332 332 329 327 325 323 321 320 320 321 321 320
322 328 336 339 336 333 334 336 338 338 337 337 338 338 338 339 339 339 337 336 334 333 334 335 335 334 333 331 326 326 326 324 324 325 326 325 323 322 324 324 324 327 327 327 325 320 313 312 315 317 318 317 316 315 313 311 310 310 310 310 309 310 307 308 305 306 321 326 323 316 315 326 329 330 329 327 324 323 322 318 319 321 321 323 321
323 328 335 338 334 331 333 335 337 337 337 336 337 337 337 338 338 338 336 335 335 333 333 335 334 333 331 329 325 326 327 327 326 327 328 328 324 320 324 325 325 326 325 324 321 316 312 310 311 311 312 312 312 311 311 309 309 309 309 309 307 306 304 305 305 305 315 322 321 315 316 326 327 325 325 326 328 326 322 317 324 327 323 324 320
322 326 333 335 329 329 331 333 335 335 336 336 336 337 337 337 336 337 336 334 335 333 333 334 335 335 331 329 328 328 330 329 327 328 329 329 326 322 323 324 323 323 320 319 317 314 312 310 310 310 310 310 310 310 309 308 307 307 306 306 304 304 304 304 307 309 311 310 311 312 319 328 323 318 324 329 330 326 318 314 322 324 318 318 313
320 322 329 332 325 327 330 330 333 334 335 335 335 336 335 336 336 336 336 335 335 333 332 334 334 335 332 329 331 329 330 329 328 330 330 329 329 327 325 322 320 318 317 318 318 316 313 310 310 310 310 310 310 309 307 306 305 305 304 304 304 305 306 306 308 310 310 305 310 318 323 327 318 313 324 330 328 322 315 310 311 312 309 310 308
319 319 323 327 322 323 327 328 330 331 334 334 333 334 334 335 335 335 336 335 334 333 332 333 333 333 331 329 331 330 329 330 330 330 330 331 331 330 328 326 323 321 320 321 320 318 315 311 309 309 310 310 309 307 305 305 304 303 304 304 306 307 307 308 308 308 307 305 311 321 326 326 315 310 318 320 317 315 311 307 307 307 307 307 307
317 318 319 322 321 321 324 326 328 329 332 333 333 334 334 334 334 335 335 335 335 333 332 333 333 332 329 329 330 330 330 331 332 331 332 332 332 331 330 330 328 326 325 323 322 322 319 314 309 308 309 309 307 305 304 304 303 303 305 306 307 307 308 307 307 309 309 308 313 319 325 322 310 309 314 312 309 308 307 307 307 307 307 307 307
315 316 317 319 320 321 322 324 326 328 329 331 333 334 334 334 335 334 335 335 335 334 333 333 332 332 329 329 330 330 331 332 331 331 332 331 332 332 331 331 330 329 328 325 326 324 322 316 310 307 307 308 306 304 304 303 303 304 305 307 307 307 307 307 307 312 312 308 313 321 325 319 310 310 312 308 306 306 307 307 306 307 307 307 307
316 315 315 316 318 319 321 322 324 326 328 329 331 334 334 334 335 334 335 335 336 335 334 333 332 332 330 328 329 330 331 331 330 331 331 330 332 333 331 331 331 330 329 328 328 326 324 317 310 307 306 306 305 304 304 303 303 305 306 306 306 306 306 306 306 308 309 304 311 321 322 314 310 313 312 309 309 307 306 307 306 307 307 307 307
316 316 315 315 315 316 318 321 323 326 328 329 330 332 333 334 335 334 334 335 335 335 335 334 332 330 329 327 328 329 329 329 329 329 331 331 331 332 332 332 331 331 330 329 328 326 324 318 311 308 305 305 305 304 303 303 304 305 306 306 305 306 306 306 306 305 306 305 309 316 313 307 308 314 317 315 312 307 305 306 306 307 306 306 307
316 316 316 315 315 315 315 317 321 327 331 332 331 331 332 332 334 333 333 334 335 335 334 334 332 329 328 327 327 327 328 328 327 327 328 330 330 330 331 331 331 330 330 329 328 325 323 320 314 311 307 305 305 304 303 303 304 305 305 306 305 306 306 306 307 306 306 306 308 309 307 306 306 311 315 312 309 306 306 306 306 306 306 306 307
316 316 316 316 316 316 315 315 316 322 331 334 334 332 332 331 332 332 332 333 333 334 334 333 331 329 328 327 326 326 327 327 326 325 326 328 329 329 330 330 329 329 328 327 326 324 323 322 317 315 312 306 305 304 304 303 303 305 305 305 305 305 306 306 306 306 306 306 307 307 306 306 305 307 309 306 306 306 306 306 306 306 306 306 307
315 315 316 316 316 316 315 316 315 316 323 330 333 333 333 332 331 330 330 332 333 333 332 331 329 328 328 328 326 326 327 328 327 327 326 328 328 328 329 329 328 328 326 324 324 323 324 323 319 319 317 311 307 304 303 303 303 304 305 305 305 305 305 306 306 306 307 306 306 306 306 306 306 306 306 306 306 306 306 306 307 307 307 307 307
316 315 315 316 316 316 316 316 316 316 316 321 327 330 332 333 331 331 330 330 330 331 331 329 328 329 329 328 328 327 328 329 329 329 328 328 329 328 328 327 326 325 323 323 324 325 325 324 323 323 321 317 312 307 304 303 303 303 305 305 305 305 305 305 306 306 307 307 307 306 306 306 306 306 307 307 307 306 306 307 307 307 307 308 308
316 315 315 315 315 316 316 316 316 317 317 316 318 321 327 331 331 332 332 330 329 329 330 329 328 330 329 329 330 329 328 328 328 328 327 327 327 327 327 327 326 324 324 326 327 328 325 324 326 326 324 322 318 314 310 305 303 302 303 305 305 305 305 305 305 306 307 307 307 306 306 306 306 306 306 307 308 307 306 306 307 307 307 308 308
315 316 315 315 315 316 316 316 316 316 317 317 316 318 321 327 330 332 333 332 332 332 331 330 330 330 329 329 331 331 329 328 329 329 328 326 325 326 327 328 327 327 328 328 330 329 326 325 326 326 325 324 322 320 316 310 305 302 302 303 304 305 304 304 304 305 306 306 306 306 306 306 306 306 306 306 307 307 306 306 307 307 307 308 308
314 315 315 315 315 315 315 316 316 316 317 317 318 322 324 325 327 330 333 332 333 333 332 332 332 331 329 329 331 331 329 329 329 330 329 327 324 323 326 328 326 328 331 331 331 330 327 327 327 327 327 326 324 323 320 315 310 306 303 302 303 304 304 304 304 304 305 305 306 306 306 306 306 305 306 306 306 306 307 307 306 306 308 310 311
313 313 314 314 314 314 315 315 316 316 317 317 318 324 326 326 326 328 331 332 332 332 333 332 331 330 329 329 329 329 328 328 329 329 329 328 325 321 323 325 324 325 328 329 329 329 327 325 327 328 327 325 324 323 321 318 314 311 308 304 302 302 303 304 304 304 304 304 305 305 306 305 305 305 305 305 305 305 306 308 308 308 311 313 315
313 313 313 313 313 313 314 314 314 315 316 316 319 323 326 329 330 328 329 331 332 332 332 332 330 329 329 329 328 328 328 328 328 329 329 329 328 326 325 324 323 323 324 324 325 326 325 323 326 328 326 325 325 323 322 319 317 314 313 310 307 304 302 302 303 304 304 304 304 304 305 305 305 305 305 305 305 305 305 307 309 313 316 317 318
313 313 313 313 313 313 314 313 314 314 316 317 321 326 328 330 331 329 328 328 330 330 331 333 333 332 332 331 330 329 330 330 331 330 329 329 329 330 329 326 326 326 324 324 325 326 325 323 326 328 326 325 325 323 322 320 319 317 316 315 313 310 307 304 303 302 303 303 304 304 304 304 305 305 305 305 304 305 305 305 307 311 318 321 321
312 313 313 313 313 313 314 314 313 313 317 321 324 328 329 331 330 330 329 328 330 330 330 333 333 333 333 333 332 332 333 334 333 331 328 328 330 329 328 327 328 328 327 326 327 327 326 323 324 327 325 325 326 324 323 321 320 319 318 317 316 315 312 310 307 305 303 302 303 303 303 303 304 304 304 305 304 304 304 304 305 305 312 319 322
312 312 312 313 313 314 314 314 313 314 323 327 327 329 329 330 330 329 329 328 330 329 328 329 330 330 331 331 331 332 333 334 334 333 330 329 329 328 327 327 328 328 327 327 327 326 326 324 323 324 325 326 326 325 324 322 321 321 320 318 317 317 315 314 313 311 308 305 303 302 302 303 303 303 303 304 304 304 304 304 304 304 307 313 318
312 312 312 313 314 314 314 314 314 318 326 329 328 328 328 328 328 327 329 330 329 326 326 328 330 331 331 330 329 328 330 331 331 332 332 330 328 329 328 328 328 327 326 326 326 326 326 324 323 324 326 327 326 325 325 322 322 321 320 319 318 317 317 316 316 315 314 312 308 305 302 301 301 302 303 303 303 303 304 304 304 304 304 306 310
311 312 312 313 314 314 315 315 314 318 325 327 328 327 325 326 326 326 329 332 330 327 326 327 330 332 332 330 329 329 330 330 329 330 332 331 330 329 328 328 328 327 326 325 326 327 325 323 323 325 327 327 326 326 325 322 321 321 320 320 319 318 318 317 317 317 317 316 314 312 308 305 302 301 301 301 302 302 302 303 303 304 303 303 304
311 312 312 313 314 315 315 315 315 318 322 324 326 326 325 326 327 327 328 329 329 327 327 326 326 329 330 330 329 328 328 328 327 329 331 332 332 331 330 330 328 327 327 326 327 327 323 322 323 324 326 327 327 326 324 322 321 321 320 320 319 319 319 319 318 318 318 317 316 316 314 312 309 306 303 301 300 301 301 302 302 302 303 303 303
311 312 312 313 314 316 317 316 316 318 320 322 324 324 327 330 330 328 327 328 328 326 325 325 324 326 327 327 327 325 326 327 328 329 330 331 331 331 329 328 326 325 327 328 328 326 322 321 323 325 326 326 326 325 323 321 321 321 321 320 320 320 320 319 319 319 318 318 317 317 316 316 315 313 311 307 304 301 300 300 301 301 302 302 302
311 312 313 314 315 317 319 319 319 321 321 323 324 324 326 331 332 328 327 327 326 324 324 324 325 325 326 325 325 325 325 326 327 328 328 329 329 329 327 326 325 325 327 327 326 325 323 322 323 324 324 323 324 324 323 321 322 322 321 321 321 320 320 320 319 319 318 318 317 317 317 316 316 316 315 313 311 307 303 301 300 300 300 301 301
311 312 313 315 317 318 319 321 321 323 323 323 322 323 325 327 328 326 324 324 324 323 323 323 324 325 325 325 324 324 325 325 326 326 326 327 326 326 325 324 323 324 325 326 325 324 323 323 324 323 323 323 324 324 323 322 322 323 323 322 322 321 321 320 320 319 319 318 318 317 316 316 316 315 315 315 314 313 310 307 304 302 300 300 300
311 312 314 317 319 320 321 322 321 322 323 322 321 322 323 323 324 323 323 323 323 324 323 323 323 323 324 323 323 324 324 324 324 324 324 324 324 324 323 323 323 323 324 323 324 324 323 324 323 323 323 323 323 323 323 322 322 322 322 321 321 320 320 320 319 319 318 318 317 316 316 315 314 314 314 313 313 313 312 311 309 306 304 302 300
313 315 316 318 320 321 322 322 322 322 322 322 322 323 323 322 322 322 323 323 322 323 322 323 323 322 323 323 323 323 323 323 323 323 323 323 323 322 322 322 322 323 323 323 323 323 323 322 322 322 321 321 322 321 321 321 321 321 321 321 320 319 319 318 317 317 316 316 315 314 314 313 312 312 311 311 311 310 310 310 310 309 307 305 303
315 316 318 320 321 321 321 321 321 322 321 321 322 322 322 322 321 321 322 322 321 322 322 322 322 322 323 323 322 322 322 322 322 322 322 321 321 320 320 320 320 321 321 321 321 321 321 321 321 320 319 318 317 316 316 316 316 316 315 315 315 315 314 314 314 314 313 313 313 312 312 311 311 310 310 309 309 308 308 308 307 307 307 306 304
316 317 319 321 320 320 320 320 320 321 320 320 320 320 320 320 320 320 320 320 320 321 321 320 319 320 321 321 320 320 320 320 320 319 318 317 317 317 316 315 314 314 314 314 314 314 314 314 314 313 311 310 309 309 308 308 308 308 307 308 309 309 309 309 310 311 311 311 311 311 310 310 310 309 309 309 308 308 308 308 307 307 307 306 305
316 317 318 318 317 317 318 319 319 319 319 318 319 319 319 319 318 318 319 318 318 318 318 318 317 317 317 317 316 315 314 314 312 311 310 310 310 310 309 308 308 307 307 307 307 307 306 306 306 305 305 304 305 305 304 305 305 304 305 308 309 309 308 307 307 308 308 307 307 307 308 308 308 308 307 307 306 306 306 306 306 307 307 307 307
316 317 317 318 317 316 317 318 317 317 317 317 317 318 318 317 317 317 317 317 314 313 312 312 312 311 311 310 309 308 307 306 306 306 306 306 305 305 305 305 305 304 304 304 304 304 304 304 304 304 304 303 303 303 303 303 303 304 306 308 310 309 308 307 306 305 304 304 304 305 305 304 305 304 303 302 302 301 301 301 302 302 303 304 305
315 316 316 317 317 317 317 317 317 317 317 317 317 317 316 316 315 314 314 312 308 307 307 307 306 306 305 305 305 305 305 304 304 304 304 304 304 303 303 303 303 302 302 302 302 302 302 302 301 302 302 301 300 300 300 301 301 302 304 306 309 308 308 308 305 304 304 303 304 303 301 300 300 299 298 297 297 297 297 297 297 298 298 299 300
315 316 316 317 317 317 317 317 316 316 316 315 315 314 313 312 311 310 308 307 305 305 305 305 304 304 304 303 303 303 303 302 302 302 302 302 302 301 301 301 301 300 300 300 300 300 300 300 299 299 299 298 297 297 298 297 298 299 300 303 306 307 308 305 301 303 303 302 302 300 297 297 295 295 294 294 294 293 293 293 293 294 294 295 296
315 315 316 317 317 317 317 317 316 315 314 313 312 310 309 308 307 306 305 305 304 304 304 304 303 303 303 302 302 302 302 301 301 301 300 300 300 300 300 299 299 299 299 299 298 298 297 298 297 297 297 296 295 295 295 295 295 295 295 298 302 304 302 297 298 303 302 300 301 297 294 294 292 292 292 292 292 292 292 292 292 292 292 292 292
315 314 316 316 316 316 317 316 315 314 312 310 308 307 306 306 305 305 305 304 304 303 303 303 302 302 302 302 301 301 301 300 300 300 299 299 299 299 299 298 298 298 297 297 297 296 296 296 296 295 295 294 294 293 293 293 293 293 293 293 295 295 294 292 295 298 296 297 297 293 293 293 291 291 291 291 291 291 291 291 291 292 291 291 291
314 314 315 316 315 315 314 313 311 309 307 306 305 305 304 304 304 304 304 304 303 303 302 302 302 302 301 301 301 300 300 300 299 299 299 298 298 298 297 297 297 296 296 296 296 295 295 295 294 294 294 293 293 293 292 292 292 292 292 291 291 290 291 291 292 292 292 293 293 292 292 291 290 291 291 291 291 290 291 291 291 291 291 291 291
315 315 315 315 313 311 309 308 307 306 305 304 304 304 303 303 303 303 303 303 303 302 302 301 301 301 300 300 300 299 299 299 299 298 298 297 297 297 296 296 296 295 295 295 295 294 294 294 293 293 293 293 293 292 292 291 291 291 291 291 290 290 290 290 290 290 290 290 290 291 291 290 290 290 290 290 290 290 290 290 290 290 291 291 291
315 315 313 311 309 307 306 305 304 304 303 303 303 303 303 302 302 302 302 302 302 301 301 301 300 300 300 299 299 298 298 298 297 297 296 296 296 295 295 295 295 294 294 294 294 293 293 293 293 292 292 292 292 291 291 291 290 290 290 290 290 290 289 289 289 289 288 288 289 289 289 289 290 290 290 290 290 290 290 290 290 290 290 290 290
312 311 308 306 305 304 304 303 303 303 302 302 302 302 302 302 302 302 302 301 301 301 300 300 299 299 298 298 298 297 297 297 296 296 295 295 295 295 294 294 294 293 293 293 292 292 292 292 292 291 291 291 290 290 290 290 290 289 289 289 289 289 289 288 288 288 288 288 288 288 288 288 288 289 289 289 289 289 290 290 290 290 290 290 290
308 306 305 304 303 303 303 302 302 302 302 301 301 301 301 301 301 301 301 300 300 299 299 299 298 298 297 297 297 296 296 295 295 295 295 294 294 294 293 293 293 292 292 292 291 291 291 290 290 290 290 290 290 290 289 289 289 289 289 289 288 288 288 287 287 287 287 287 287 287 287 287 287 287 288 288 288 289 289 289 289 289 289 289 290
Wind_Speed
3 8 13 14 12 12 13 11 11 9 7 6 5 5 4 3 3 3 3 4 4 5 7 8 9 9 10 9 8 8 9 11 11 10 11 10 9 8 7 7 7 7 8 9 10 10 10 10 11 11 11 11 9 8 8 9 8 7 7 7 7 8 7 6 7 8 9 10 10 10 10 10 9 9 9 8 8 7 6 6 7 7 7 6 5
3 9 12 15 13 12 13 12 11 9 8 6 6 6 4 3 4 4 4 4 4 4 6 7 7 8 8 8 7 7 10 11 11 10 9 8 8 7 6 6 6 6 7 8 9 9 9 9 9 10 10 10 9 8 8 8 8 8 8 7 8 8 8 8 8 9 9 9 9 9 9 9 9 8 8 8 7 7 6 6 6 7 7 6 4
4 10 11 15 14 13 14 12 12 9 8 7 6 6 5 4 3 3 3 3 4 3 4 5 6 6 6 7 5 6 9 10 9 9 9 7 7 6 5 5 5 5 7 8 9 8 8 8 8 8 8 8 8 7 7 6 7 7 7 7 7 7 7 8 8 8 8 8 8 9 9 8 9 8 6 7 6 6 5 4 5 6 7 7 5
5 11 9 14 14 13 15 13 12 10 9 8 7 7 5 4 2 2 2 3 3 3 4 4 4 4 4 5 4 5 9 9 9 9 8 7 6 5 5 4 4 5 5 7 7 7 8 8 8 8 8 7 7 6 6 5 5 5 5 6 6 7 7 7 7 7 7 8 8 8 8 7 8 7 6 6 5 5 4 3 3 3 4 5 5
6 12 8 13 14 13 14 13 13 11 10 9 8 7 5 4 2 2 1 1 2 3 3 3 2 2 3 4 3 6 9 9 9 8 7 7 6 5 4 4 4 4 4 5 5 5 6 7 8 8 7 6 6 6 5 5 5 4 4 4 4 5 6 6 6 6 7 8 8 8 5 5 6 6 6 6 6 4 3 3 2 1 2 3 4
8 13 8 12 15 13 14 13 12 11 11 9 8 7 6 5 4 3 0 1 3 3 2 2 2 4 2 4 3 6 9 9 8 7 7 6 6 5 4 4 3 3 2 3 3 4 6 7 8 8 6 5 5 5 5 5 5 5 4 4 3 3 3 4 5 5 5 6 7 6 4 5 5 5 5 5 5 5 3 2 1 1 1 1 2
8 12 8 10 13 13 15 13 12 11 11 9 8 7 6 6 5 4 1 1 3 4 1 1 2 4 2 3 4 6 8 8 7 7 7 6 6 5 4 3 3 2 2 2 3 5 7 8 8 7 5 4 3 4 5 5 4 5 5 4 4 3 3 3 3 5 4 4 4 4 3 4 4 5 4 5 5 5 4 3 1 1 1 2 2
7 11 9 9 10 12 16 14 13 11 10 9 8 8 7 6 5 4 2 2 4 3 2 1 2 3 3 2 3 4 7 8 7 7 7 7 7 5 3 2 2 1 3 4 6 8 8 9 7 5 5 4 4 4 5 5 5 5 4 4 4 4 4 3 3 4 3 3 3 3 3 3 3 4 4 5 5 5 6 5 3 3 3 3 3
6 10 9 8 9 13 16 15 13 11 10 9 8 7 6 6 6 4 2 2 2 2 2 1 1 2 3 1 2 4 6 7 7 7 8 8 7 4 3 1 0 2 4 6 8 9 9 7 5 5 5 5 5 5 5 5 5 5 4 4 4 4 4 4 3 2 2 3 1 4 5 2 2 3 4 5 6 7 7 6 5 4 4 4 4
5 8 9 7 7 10 15 16 13 11 11 9 9 8 7 7 6 5 3 3 2 0 2 2 0 1 3 2 2 4 5 6 6 7 8 9 7 4 3 1 1 4 6 7 8 9 9 6 5 5 6 6 5 5 5 4 4 4 4 3 3 3 3 3 1 1 2 2 1 3 6 3 0 1 3 5 6 6 5 5 5 5 3 2 3
6 8 8 7 7 8 14 16 14 13 11 10 9 9 8 7 6 5 5 4 3 2 2 3 2 1 2 2 3 4 3 4 6 7 8 9 8 5 3 2 2 4 6 7 7 9 10 8 6 6 6 6 5 4 3 3 3 2 2 2 1 2 2 2 2 2 3 3 2 4 7 3 2 2 1 3 5 4 3 3 4 5 4 3 2
7 8 8 8 9 8 12 14 14 13 11 10 10 10 9 8 7 6 6 5 4 3 3 4 3 2 1 2 2 3 3 4 6 6 6 8 7 6 4 2 3 3 5 6 7 9 11 10 7 6 5 5 4 2 2 2 2 2 2 2 2 3 4 4 4 4 3 3 3 5 7 3 2 3 2 3 3 2 4 4 3 4 4 4 4
9 9 8 8 9 10 11 13 13 13 12 11 10 11 10 9 8 7 6 5 5 4 4 4 4 3 1 1 2 3 2 2 4 4 5 6 6 5 3 2 3 3 4 6 8 10 11 10 8 6 4 3 2 1 1 2 3 3 3 3 3 3 4 4 5 5 4 4 4 5 5 1 1 4 4 2 1 4 6 6 5 6 7 7 7
10 10 9 8 8 11 11 12 13 13 12 11 11 10 10 10 9 8 7 6 6 5 5 4 4 3 2 1 2 1 1 1 2 3 3 4 4 4 3 3 4 4 5 7 8 10 11 11 10 8 4 1 1 0 1 2 3 4 3 3 3 3 3 4 5 5 4 5 4 6 4 1 0 3 4 4 4 5 6 6 6 6 7 7 7
9 10 11 9 9 10 12 12 12 13 13 12 11 11 10 10 10 9 9 7 6 6 6 5 5 4 3 3 2 1 1 1 1 2 3 3 3 2 2 3 4 6 7 8 10 11 13 13 12 10 6 2 1 2 2 3 4 4 4 3 3 3 3 4 5 4 4 4 4 6 3 1 0 1 0 1 1 3 4 4 5 5 5 6 6
7 8 9 10 9 10 12 12 13 13 13 13 13 12 12 11 11 11 10 9 7 7 7 6 6 5 4 4 4 3 3 3 3 3 3 3 2 1 2 3 4 6 8 10 11 13 14 15 13 11 8 3 1 2 3 3 4 4 4 3 3 3 3 3 4 4 3 2 4 5 1 2 1 1 2 2 2 2 3 4 4 4 4 5 5
5 6 7 9 9 10 11 12 13 13 13 13 14 14 13 13 11 12 12 10 9 8 8 8 7 7 6 6 6 6 5 5 5 5 4 4 3 3 3 3 5 7 9 10 11 13 14 15 14 12 10 6 3 2 3 4 4 3 3 3 2 3 3 3 3 3 2 2 4 3 2 2 0 1 2 2 2 1 2 3 3 4 4 4 5
5 5 5 6 8 9 10 11 12 13 13 13 14 15 15 15 13 13 13 12 11 10 9 9 8 8 8 7 8 8 7 6 6 6 5 5 4 4 4 4 5 7 9 10 11 13 14 14 14 12 10 8 5 2 3 3 3 3 3 2 2 2 2 2 2 3 2 3 4 2 1 2 1 1 3 3 2 2 2 3 3 4 4 4 4
6 5 5 5 6 7 9 11 11 11 11 12 12 13 15 16 15 14 14 14 13 12 11 11 10 9 9 8 9 8 8 7 6 7 6 7 6 6 6 6 7 9 11 12 12 13 13 13 13 13 11 9 7 4 3 3 3 3 2 2 1 1 1 1 1 2 2 2 2 1 2 2 1 1 2 2 2 2 2 2 3 4 4 5 5
9 7 6 6 6 7 8 9 10 11 10 10 10 11 13 15 16 16 15 14 13 13 12 13 12 10 9 8 7 7 7 6 7 8 8 8 8 8 7 6 7 10 12 13 13 13 12 12 12 13 13 11 9 7 4 3 3 3 2 2 1 0 1 1 1 1 1 1 1 0 1 2 2 2 2 2 2 2 2 2 2 3 3 4 5
12 11 9 8 8 8 8 8 9 10 10 10 11 12 14 14 14 15 15 14 13 13 13 13 12 10 9 7 6 5 6 7 7 8 9 9 10 10 9 7 8 11 13 14 13 12 10 10 10 12 13 12 10 9 6 4 3 3 3 2 2 1 1 1 1 1 1 1 1 1 2 2 2 3 2 2 2 2 2 2 2 2 3 3 4
12 13 12 10 10 9 9 9 8 9 10 10 11 13 14 14 12 13 14 14 13 13 12 11 10 9 9 7 6 5 6 7 7 7 8 9 10 10 10 9 9 11 12 12 10 10 9 8 9 11 12 12 11 10 8 6 5 4 4 3 3 2 2 2 2 2 2 3 2 2 2 3 3 3 3 2 2 2 2 2 2 2 3 3 3
12 13 13 13 12 11 11 11 10 10 10 10 10 12 13 13 13 13 13 13 13 12 11 10 9 9 9 8 6 6 7 8 9 9 9 9 11 11 11 10 9 10 10 9 9 9 9 8 9 11 11 12 12 12 11 8 6 6 5 5 4 4 3 3 3 3 4 4 4 4 4 4 3 3 4 3 2 2 1 2 2 2 2 3 3
12 13 13 14 14 14 13 13 13 12 11 11 10 10 11 12 14 14 13 12 12 11 10 9 10 10 9 9 7 7 8 9 10 10 9 10 11 12 11 10 9 10 11 10 8 8 9 9 10 13 13 14 16 15 13 10 7 6 7 6 6 5 5 5 4 4 5 5 5 5 5 5 4 4 4 4 4 3 2 2 2 2 2 2 3
12 12 13 14 15 15 15 15 15 14 13 12 10 8 9 11 14 16 14 14 13 12 12 11 10 9 9 9 9 9 9 10 10 10 9 9 11 12 11 10 10 11 12 10 6 8 10 11 12 13 12 14 17 16 15 13 10 8 8 8 7 7 7 6 6 6 6 5 6 6 6 6 6 6 5 5 5 4 3 2 2 3 3 2 3
10 11 11 12 13 14 15 16 16 16 15 13 11 8 8 9 12 15 14 12 13 14 14 12 10 10 10 11 11 10 10 10 11 10 9 8 9 11 11 11 10 10 10 9 7 9 10 11 11 10 10 13 15 15 15 13 11 10 10 9 9 9 9 8 8 7 7 7 6 7 7 6 6 7 7 6 6 5 5 4 2 4 5 5 4
8 9 10 10 11 12 13 14 16 18 17 14 12 8 8 7 8 11 11 10 12 14 14 13 13 13 12 12 12 12 11 11 11 10 10 9 8 7 9 9 9 9 9 8 8 9 10 10 9 8 10 12 13 13 14 14 13 12 11 11 10 10 11 11 11 10 10 9 8 8 8 8 7 7 7 8 7 7 7 7 5 4 6 9 6
7 7 8 9 10 10 11 12 15 18 17 15 12 7 7 8 8 9 10 11 11 12 15 14 13 14 14 13 13 13 12 12 12 11 11 10 9 8 8 9 8 8 8 8 9 10 11 11 9 8 10 11 12 12 12 13 14 13 13 13 12 11 11 11 12 12 13 12 12 11 10 10 9 9 8 9 9 8 9 8 7 5 4 6 6
5 6 6 7 8 8 9 9 11 16 16 12 10 7 8 9 10 10 11 13 11 12 16 14 12 13 13 13 13 13 13 13 13 13 12 10 11 11 10 10 9 9 9 9 10 11 11 12 11 11 10 9 10 11 10 11 11 12 13 13 13 13 13 12 12 13 13 14 15 14 13 13 12 11 10 10 10 10 10 9 9 7 4 4 3
4 4 4 4 5 6 6 7 9 13 11 8 9 9 11 12 13 14 14 15 14 13 15 14 13 13 13 14 13 13 13 12 10 11 14 12 11 12 12 12 11 9 8 8 8 7 8 10 11 11 10 9 10 11 10 8 8 10 11 12 13 13 13 13 13 13 13 14 15 15 15 15 14 14 13 13 12 12 12 11 10 9 6 6 6
4 4 4 3 4 4 5 8 11 12 10 10 12 13 15 15 15 15 13 13 15 14 13 14 14 15 15 15 13 12 13 13 9 9 12 13 12 11 12 13 11 9 9 9 9 8 10 11 11 10 10 10 10 11 9 7 8 9 10 11 12 12 13 13 13 14 14 14 14 15 15 16 16 16 16 15 15 14 13 13 12 11 10 9 8
5 5 4 3 3 4 5 8 12 14 13 15 16 15 16 16 15 15 13 13 15 15 14 13 13 15 15 13 11 10 11 12 10 8 9 12 13 12 13 13 12 11 10 11 11 11 13 12 10 9 10 11 10 9 8 7 9 9 9 9 10 11 12 13 14 14 14 14 14 14 14 15 16 17 17 17 17 16 16 15 14 14 12 11 10
5 5 5 4 4 3 5 8 12 15 16 17 17 16 16 14 14 15 13 13 15 14 13 12 11 12 13 12 10 9 10 10 9 8 6 8 12 14 13 12 11 10 10 10 11 12 13 12 11 9 10 12 11 9 8 8 10 10 9 8 8 10 11 13 14 14 14 14 14 14 14 15 15 16 17 18 18 18 18 17 17 16 15 14 13
5 4 4 4 4 4 5 7 10 13 13 15 17 17 17 15 15 15 13 13 14 15 13 11 10 9 10 10 8 7 8 7 7 6 4 4 8 9 8 9 9 10 10 10 10 11 11 11 11 10 9 10 10 10 11 12 11 11 10 9 10 11 13 14 14 14 14 14 14 14 14 15 16 16 16 17 17 18 19 19 19 18 17 17 16
4 4 4 4 5 6 7 8 9 11 12 15 16 17 17 16 15 15 14 12 12 11 9 8 7 6 6 6 6 5 5 6 7 7 5 4 5 5 5 6 7 8 8 8 8 9 9 8 8 8 9 9 10 12 13 14 14 13 12 11 12 14 15 14 14 14 14 14 14 14 14 15 16 16 16 17 17 17 18 19 19 19 19 19 18
4 4 5 5 5 6 8 9 10 12 13 14 14 15 15 15 14 12 11 10 8 5 4 4 3 3 3 3 3 3 3 4 6 7 6 5 5 5 5 5 5 6 6 6 7 7 7 7 7 8 8 9 11 13 14 15 15 15 13 12 14 16 16 15 14 14 15 15 15 15 15 15 16 16 16 16 17 17 17 18 19 19 19 20 20
5 5 6 8 8 7 8 8 9 11 13 12 11 12 11 11 10 7 6 5 5 5 4 2 1 1 0 1 1 0 1 1 1 2 3 3 3 3 2 2 3 4 5 6 6 7 7 7 7 7 7 8 9 11 12 13 13 13 12 12 14 14 14 15 15 15 16 16 16 16 16 15 15 15 15 14 15 16 16 17 18 18 19 20 21
7 7 7 8 8 8 9 9 9 10 11 10 10 11 9 8 8 7 7 7 5 5 5 3 2 2 3 3 3 3 3 3 3 3 2 2 2 1 1 1 1 2 3 3 4 5 5 6 6 6 7 8 9 11 11 11 12 13 13 13 13 13 13 15 16 16 16 15 16 15 15 15 14 14 14 14 14 14 15 15 16 17 18 19 20
9 10 10 11 11 11 11 12 12 11 10 10 10 11 11 10 11 10 10 8 5 6 6 6 5 5 5 5 4 3 3 3 3 4 3 2 1 1 1 1 2 2 3 4 5 5 6 7 7 8 9 10 11 11 11 12 12 12 12 12 11 11 12 13 13 14 14 13 13 13 13 13 14 13 13 14 14 14 14 15 15 16 17 17 18
11 13 14 14 13 13 13 13 13 12 11 11 11 12 12 12 12 11 9 8 7 8 6 4 4 4 4 3 2 2 1 1 2 2 2 2 1 2 1 1 2 2 3 3 4 4 5 6 6 7 7 7 8 8 9 9 8 8 9 9 9 8 7 9 9 9 9 10 11 11 12 12 13 13 13 14 15 15 16 16 17 17 18 18 18
13 15 15 13 12 13 14 15 15 14 12 11 12 11 11 10 11 10 9 9 7 6 4 3 3 4 4 4 4 5 5 5 5 6 6 6 6 6 6 5 5 5 5 5 5 5 5 5 5 5 7 8 8 8 10 10 9 10 9 8 8 7 8 8 5 5 8 10 10 9 10 11 11 12 14 15 16 17 17 18 18 19 20 21 21
14 15 15 13 12 13 14 14 14 13 12 11 11 11 10 9 9 9 9 9 8 8 8 9 10 11 12 12 12 12 12 12 12 12 12 12 11 11 10 10 10 10 10 10 10 10 9 10 9 9 10 12 12 12 13 11 11 11 9 7 4 5 10 6 3 9 13 9 6 7 8 11 11 12 13 13 14 15 15 16 17 17 18 19 20
15 16 15 15 14 13 14 13 13 13 12 12 11 11 11 10 9 10 12 13 15 16 16 18 18 18 18 17 17 16 15 15 15 14 13 13 13 12 13 12 13 13 12 12 12 11 11 12 12 11 11 13 14 14 14 14 14 12 8 5 1 4 6 2 5 12 10 5 5 9 12 13 12 12 13 13 14 14 14 15 15 16 16 16 17
17 17 16 16 15 14 14 13 12 12 12 12 12 12 13 15 16 18 18 19 21 21 20 21 20 19 19 17 17 16 15 15 14 14 14 14 13 13 13 13 13 12 12 11 11 11 12 12 12 12 11 12 14 15 16 16 16 14 11 6 3 5 2 6 14 8 2 6 9 13 15 16 16 16 16 16 16 16 16 16 17 17 17 17 17
18 19 19 18 16 15 14 12 11 12 12 13 15 17 19 21 22 23 22 22 22 21 20 20 19 17 17 16 15 14 13 13 13 13 13 13 13 13 12 12 11 11 11 12 12 12 12 12 12 13 13 13 14 15 16 16 17 16 14 10 5 6 7 14 15 2 4 9 11 15 17 17 20 22 21 21 20 20 19 18 19 19 19 19 19
20 20 21 20 19 17 15 13 13 14 15 18 20 21 22 23 23 23 22 21 21 20 18 17 16 15 14 14 13 12 11 11 11 11 12 12 12 11 11 11 11 12 12 12 12 12 13 13 14 14 14 14 14 14 15 16 16 15 15 13 8 8 11 15 13 8 12 12 12 18 18 19 24 26 24 24 24 25 23 22 22 21 20 20 20
21 22 22 21 20 18 17 17 17 18 20 22 22 22 22 22 21 20 19 18 18 18 17 14 13 12 12 11 10 10 9 9 9 9 10 10 10 11 11 11 12 12 12 12 13 13 14 14 14 14 14 14 14 14 15 15 15 15 14 13 11 11 12 13 13 15 18 19 20 20 18 23 28 28 26 26 28 28 27 27 26 24 23 21 21
22 22 22 21 21 21 21 22 22 22 22 22 22 21 20 19 18 18 18 16 15 15 14 12 11 10 9 8 8 7 6 6 6 7 8 8 9 10 10 11 11 11 12 12 13 13 13 13 13 13 13 14 14 14 15 15 15 15 14 13 13 12 12 12 13 15 18 23 26 22 22 28 29 29 29 29 30 30 30 30 29 28 27 25 24
24 23 24 24 25 25 26 26 25 24 23 22 21 20 18 17 16 14 14 14 13 12 12 10 10 9 8 7 6 5 5 5 5 6 6 7 8 9 9 10 10 11 11 12 12 12 12 13 13 14 14 15 15 15 15 15 16 16 16 15 15 15 14 13 15 17 18 21 23 24 28 32 32 32 31 31 32 32 33 32 31 30 30 29 28
25 26 27 28 28 29 28 27 26 25 24 22 20 19 17 15 14 12 11 12 12 11 11 10 9 8 7 6 5 5 4 4 5 5 6 6 7 8 9 9 10 11 12 12 12 13 13 14 14 15 15 15 15 15 15 16 16 16 16 17 17 17 17 17 17 19 20 21 23 26 29 31 34 34 33 34 34 34 34 33 33 33 32 31 31
28 29 30 31 30 30 29 28 27 26 24 23 20 18 16 14 13 11 10 10 10 10 10 9 9 8 6 5 5 4 4 4 4 5 5 6 7 8 9 10 11 12 12 13 13 14 14 15 15 15 15 15 15 16 16 16 16 17 17 17 18 18 18 18 19 20 21 21 23 27 29 29 32 34 34 36 36 36 36 35 35 35 35 35 35
Wind_Direction
219 177 180 180 177 175 169 162 161 163 159 150 145 140 136 138 124 111 88 80 72 63 59 57 54 53 52 54 64 75 80 82 86 87 92 92 84 71 58 51 46 41 32 25 22 26 29 29 30 27 27 31 39 48 59 66 69 75 78 80 78 81 79 72 66 58 54 55 59 53 49 45 43 43 46 51 56 64 61 52 50 55 56 58 56
217 184 182 179 180 178 174 165 163 168 166 156 151 145 134 130 116 106 89 83 74 59 57 58 54 58 61 58 62 75 83 85 89 88 88 89 84 80 65 53 41 29 19 17 17 20 24 25 30 29 29 32 39 45 53 60 63 64 67 72 75 81 81 80 75 71 68 63 60 54 49 45 40 37 43 51 54 60 61 55 47 51 54 55 59
195 189 186 178 182 182 178 170 165 170 171 164 159 156 149 144 127 114 90 84 78 67 58 63 63 69 79 77 73 77 88 89 88 86 86 84 79 80 71 58 39 29 20 19 20 23 29 25 24 24 24 29 34 38 44 53 60 62 60 61 63 70 74 78 79 77 70 59 56 49 41 36 34 30 38 49 53 55 54 54 47 51 53 52 55
175 189 186 178 185 185 181 175 168 172 174 171 169 166 163 161 149 131 93 84 77 77 62 63 76 82 102 107 108 91 91 90 85 82 79 74 68 68 63 55 41 33 22 20 21 19 27 24 16 11 11 16 23 28 31 34 44 53 56 58 56 58 65 71 72 71 66 59 56 52 37 22 24 25 38 47 49 51 50 47 38 47 46 49 54
164 182 183 178 186 189 185 181 173 174 177 178 176 176 178 176 176 164 110 76 54 63 65 55 50 52 121 141 132 96 94 91 87 83 74 66 59 52 47 43 28 30 19 14 15 5 10 9 359 357 357 1 10 18 20 15 12 16 25 38 45 49 55 57 55 55 63 67 61 58 37 18 24 22 31 41 48 46 39 39 25 21 13 31 44
167 178 179 180 187 192 188 187 180 178 181 184 184 184 187 186 193 189 213 22 20 19 64 73 9 1 94 144 128 97 95 90 84 76 66 57 49 36 36 39 16 20 4 358 357 339 345 343 339 342 345 348 359 8 11 7 357 351 350 351 1 13 27 34 34 35 53 78 69 60 32 17 26 19 21 28 39 38 29 31 6 353 336 343 13
169 174 176 180 187 196 189 190 187 184 186 189 191 191 195 194 201 205 233 325 352 3 72 103 16 357 23 112 117 101 97 90 80 66 51 41 31 21 28 36 19 8 318 310 306 313 331 333 330 333 334 329 333 351 357 354 347 337 333 333 332 334 346 354 4 12 29 78 77 75 52 13 13 10 5 360 2 5 1 4 340 312 307 301 300
164 170 174 174 189 202 190 192 191 188 192 192 195 197 202 201 206 216 235 308 341 10 104 103 31 355 358 89 120 102 95 88 77 58 40 27 17 17 26 29 40 351 277 286 296 309 329 331 325 321 321 315 313 328 338 339 333 323 321 322 321 321 325 324 334 350 16 75 100 123 93 24 360 359 351 341 337 331 334 336 308 273 268 273 272
158 169 173 173 198 205 191 193 192 189 194 196 198 199 204 205 209 217 230 286 331 23 114 114 48 6 355 11 101 87 80 75 65 49 34 21 14 26 32 21 156 260 280 297 305 317 334 333 317 307 308 309 312 320 327 330 325 320 318 317 316 316 313 312 320 340 37 67 127 169 147 94 15 340 334 331 326 319 327 336 324 303 275 271 265
154 169 173 181 208 207 194 192 192 193 196 200 201 202 206 211 217 220 234 268 280 253 157 151 151 12 6 359 59 80 75 64 51 39 32 25 25 46 45 9 264 273 297 310 316 330 343 342 320 310 308 309 312 317 320 322 324 323 324 325 321 323 326 326 317 76 81 88 73 147 144 114 192 293 331 334 336 331 336 351 353 353 344 318 275
158 170 173 190 213 207 200 196 194 198 200 205 206 206 209 213 222 228 241 255 246 220 192 174 193 283 10 24 67 86 82 52 37 32 31 29 34 57 65 15 318 308 312 309 322 339 348 348 334 322 318 317 316 319 318 323 340 348 347 349 10 42 54 49 91 113 121 145 134 122 110 78 257 224 350 9 19 6 353 4 24 22 27 32 5
166 174 178 202 212 199 204 203 200 202 203 209 211 212 214 218 225 230 236 240 232 218 199 188 197 227 9 65 75 69 75 36 26 28 27 31 38 59 76 20 338 340 331 322 335 347 352 351 342 330 326 328 327 329 329 348 20 32 40 63 76 81 86 83 95 101 117 137 132 122 106 83 247 192 146 65 57 356 331 337 2 344 336 344 341
170 176 185 207 209 193 202 206 204 205 205 210 213 216 217 220 226 226 224 225 227 224 208 201 208 220 272 105 91 55 66 20 13 14 15 31 41 60 71 7 343 349 339 331 343 349 354 353 344 335 328 330 337 351 356 38 62 63 66 71 70 73 82 87 92 95 103 109 105 100 94 23 247 166 185 185 232 287 313 319 319 313 316 322 326
169 177 187 205 207 197 200 202 204 205 204 209 209 213 215 217 221 220 219 222 227 231 224 212 214 225 252 205 150 74 57 358 355 353 355 21 38 60 58 8 343 336 323 324 342 349 352 353 346 337 329 329 336 78 94 97 96 92 87 78 74 70 72 80 81 83 94 96 90 92 100 262 223 159 211 237 251 285 304 311 316 314 317 319 323
163 176 188 199 205 202 203 201 204 203 202 205 203 205 209 213 217 218 216 214 220 226 226 220 220 226 234 216 186 185 207 237 262 315 333 356 17 43 37 6 338 328 323 329 343 347 350 352 347 340 333 334 173 169 150 130 121 114 107 98 97 91 83 81 80 72 70 85 82 79 90 263 308 92 34 297 274 296 301 307 311 312 315 318 320
154 171 184 195 202 201 204 205 205 206 204 202 201 204 206 209 213 218 218 213 214 218 220 224 229 231 229 214 202 205 213 223 247 272 295 314 326 339 349 343 325 321 324 335 345 346 350 350 346 344 339 329 236 174 162 146 134 128 118 113 110 104 95 91 91 83 64 84 86 75 42 279 12 35 25 10 357 315 306 314 311 317 319 319 320
157 167 180 190 197 199 201 206 207 209 210 204 202 205 208 207 211 217 219 217 216 217 221 227 231 236 234 220 208 209 215 226 245 251 264 282 285 289 309 320 313 313 317 331 345 345 347 348 346 347 348 338 297 204 170 159 146 136 128 119 112 106 96 99 103 103 101 109 100 99 226 238 158 31 17 358 350 328 316 316 311 322 324 323 318
182 180 189 189 192 197 199 206 208 209 214 213 208 208 210 206 210 216 218 220 220 221 226 231 234 237 237 226 214 211 215 227 241 246 252 264 271 280 286 299 299 301 309 322 339 344 346 347 348 350 352 348 323 260 192 173 162 150 142 130 120 114 98 110 115 124 139 144 136 145 186 185 196 63 11 351 359 359 339 325 318 323 326 325 317
210 203 209 205 200 200 199 204 207 210 212 217 217 218 220 211 210 215 218 223 225 226 230 237 239 239 238 231 223 219 222 232 247 260 261 263 271 276 276 283 291 297 305 315 333 347 348 347 351 354 351 352 343 305 231 195 182 171 161 149 139 113 81 105 118 141 156 167 181 166 141 176 198 191 320 329 351 356 349 338 334 332 330 325 319
223 221 222 219 219 215 208 206 206 209 205 210 215 221 230 224 217 216 217 221 228 231 234 242 247 246 244 240 237 233 237 247 259 267 268 269 274 276 273 283 296 301 305 312 328 342 345 345 349 354 352 350 352 335 281 231 209 198 191 183 189 244 3 13 66 161 181 203 231 200 181 204 202 220 267 309 325 340 351 344 345 339 334 328 324
227 228 231 229 232 229 224 219 212 213 208 203 206 212 226 231 227 223 220 220 226 234 240 249 256 258 257 260 260 250 251 261 266 266 268 271 274 276 274 284 294 298 306 314 328 341 344 345 344 349 353 351 353 347 319 269 240 231 224 220 230 258 344 354 338 303 271 263 266 257 236 229 226 237 254 273 298 321 341 337 341 338 336 328 324
233 231 232 235 239 239 236 232 225 222 219 213 209 208 215 224 225 225 226 226 230 237 247 255 261 263 264 269 270 260 253 261 267 264 266 268 271 274 278 286 290 297 310 317 328 343 344 344 342 346 354 354 352 351 341 305 266 254 249 249 255 274 315 331 322 306 292 284 279 271 263 250 245 249 251 256 275 295 319 323 328 335 343 339 332
239 236 233 234 237 240 241 239 236 230 229 225 220 214 210 210 210 217 224 226 231 236 245 252 252 253 259 264 263 256 247 248 254 256 261 265 270 275 280 288 289 295 300 303 318 330 329 335 343 344 349 356 356 356 352 329 291 268 263 264 266 278 292 303 309 302 297 290 287 282 276 269 262 259 259 267 266 251 273 295 316 337 352 355 347
243 242 237 236 235 236 237 238 239 234 232 227 223 219 211 204 199 206 215 219 223 226 230 234 239 242 250 254 250 247 244 244 248 254 260 263 270 274 279 283 283 286 281 281 308 327 326 332 339 336 336 347 353 352 349 341 320 287 269 267 269 276 281 288 294 296 298 295 293 289 286 285 278 274 271 273 273 261 256 275 309 328 356 13 5
243 243 242 241 238 238 236 236 237 235 234 229 223 214 207 204 198 198 205 214 215 216 220 222 227 236 240 243 244 247 246 247 252 256 258 260 266 268 273 279 282 287 284 284 309 334 333 333 334 335 335 340 346 347 345 342 333 316 291 275 268 269 271 276 283 288 293 295 295 291 289 289 286 285 282 282 283 280 279 282 320 328 337 349 356
236 238 239 240 241 240 239 237 236 234 233 228 222 213 204 201 199 198 199 208 214 216 218 216 215 222 227 229 236 241 239 241 247 252 254 258 261 259 262 271 276 278 283 288 300 317 324 322 322 336 342 339 344 347 344 341 337 330 317 299 282 274 271 272 275 279 283 287 290 287 284 283 283 285 284 285 285 284 287 293 319 337 340 339 340
229 230 231 234 237 237 238 236 234 231 229 225 219 211 196 189 199 198 192 200 210 216 217 218 219 219 219 220 224 226 224 225 230 238 242 245 252 248 246 259 269 269 273 277 279 288 300 305 307 329 342 340 344 348 344 341 340 337 332 324 310 294 284 280 279 278 280 281 282 282 281 280 279 281 282 284 285 285 288 298 313 335 346 341 340
236 236 235 235 236 236 236 234 231 224 220 218 211 198 181 186 195 183 185 196 200 216 218 219 222 217 218 223 226 225 227 231 230 229 229 232 238 233 232 250 260 260 266 268 268 270 279 289 283 294 320 331 334 339 341 340 343 343 340 335 328 319 306 296 290 286 284 283 282 282 284 285 284 283 283 284 286 288 290 299 310 322 333 325 335
249 249 245 244 242 238 237 232 224 212 206 207 198 184 177 190 194 182 192 195 190 215 218 215 216 211 217 228 230 229 236 246 243 232 226 228 233 235 236 243 245 248 261 267 269 270 277 283 271 269 291 311 317 323 329 333 340 342 338 336 332 327 322 315 309 302 296 291 288 288 288 288 289 288 287 287 288 290 292 295 300 308 292 261 297
249 250 243 246 242 234 232 217 202 191 185 187 184 179 179 189 195 190 194 194 196 215 219 218 222 222 227 236 240 237 240 248 250 235 226 227 231 233 231 230 233 238 248 253 254 260 267 267 258 260 274 285 292 298 306 314 323 329 329 330 329 326 324 322 321 319 312 305 298 293 290 289 290 289 289 289 289 289 290 292 291 295 284 256 254
229 226 219 223 223 218 205 190 183 172 168 184 186 182 183 186 191 190 189 194 205 217 221 221 225 230 234 241 250 249 248 248 252 245 227 221 219 219 222 227 232 234 237 240 243 252 259 259 256 259 263 269 282 287 288 296 308 317 323 324 326 324 324 323 323 322 318 314 308 302 295 291 289 288 288 288 288 289 288 288 288 287 283 270 261
220 215 213 207 205 199 180 181 180 171 176 189 187 185 186 187 190 193 194 199 210 218 221 223 223 228 229 232 244 251 256 255 254 255 238 228 225 226 229 231 236 240 238 240 247 260 266 261 252 254 255 258 272 279 277 286 298 310 320 320 321 320 322 324 324 322 318 315 311 309 304 298 292 288 287 286 285 286 286 286 285 283 282 276 269
213 208 209 194 189 190 170 174 179 180 185 189 187 186 187 193 195 195 200 203 212 221 226 234 232 230 228 228 240 250 255 255 253 254 251 241 238 236 231 227 233 238 235 237 250 266 274 263 249 255 258 257 267 274 275 285 295 306 310 309 314 317 322 325 325 323 319 317 314 312 310 306 300 294 290 287 285 284 283 282 282 281 280 278 274
200 199 200 186 177 173 165 165 173 182 186 182 185 185 182 190 197 200 207 206 215 225 231 236 231 225 223 225 237 244 243 240 238 238 228 224 235 234 225 225 234 237 235 241 257 271 275 266 257 259 260 262 271 279 287 296 301 302 298 303 315 320 322 321 320 319 318 318 316 314 311 308 305 302 298 293 288 284 281 279 279 279 279 277 275
186 181 179 176 173 164 163 165 164 170 177 177 183 187 183 188 197 206 212 211 216 224 225 224 220 217 217 226 234 237 240 235 228 221 208 207 229 236 232 238 239 235 239 249 264 275 274 267 263 263 265 272 277 282 291 295 295 291 291 298 308 315 317 311 309 313 314 312 311 310 309 308 307 305 303 299 293 288 283 280 277 277 276 276 275
176 174 166 156 162 163 162 167 166 167 178 182 186 193 194 196 202 208 209 209 210 201 191 196 203 216 233 256 259 249 252 242 234 231 231 241 254 259 257 256 249 239 249 267 272 277 283 280 278 281 282 281 282 284 286 284 281 281 285 292 298 306 308 301 302 306 307 306 306 307 307 306 305 304 302 299 296 292 288 284 280 278 275 274 273
165 165 160 148 151 159 160 166 167 167 177 183 181 187 190 192 196 195 184 176 168 153 151 166 199 218 219 352 358 135 138 151 203 218 232 255 261 269 278 280 275 261 267 280 277 275 283 281 279 284 287 288 288 286 282 278 277 279 283 287 290 295 296 295 298 299 300 301 302 304 305 305 303 301 300 297 295 293 291 289 286 283 280 276 274
153 149 147 142 144 148 149 153 151 153 166 171 170 173 173 166 155 144 141 145 144 139 134 127 122 111 99 96 98 100 101 105 102 106 115 98 96 79 43 15 328 294 276 270 263 265 268 268 273 280 287 291 288 286 284 281 282 282 281 283 286 290 292 292 294 296 297 298 298 301 302 303 302 301 302 301 299 298 296 294 292 289 286 283 280
147 141 136 136 142 145 144 147 145 148 158 161 161 160 154 147 141 141 147 146 142 137 137 139 132 130 135 126 118 111 101 105 104 104 106 96 87 68 57 290 278 272 274 268 269 275 276 279 285 289 294 294 292 294 294 293 293 294 296 300 299 296 295 295 295 295 295 296 298 301 301 300 301 304 306 306 306 305 304 301 299 296 292 289 287
145 142 143 149 158 158 154 153 148 148 154 153 151 151 151 151 151 153 154 149 150 149 147 161 164 163 172 159 143 137 118 120 114 107 97 81 62 50 46 7 354 325 310 301 300 306 301 303 305 308 316 320 323 324 324 325 327 330 335 342 338 325 321 315 305 297 298 306 307 302 303 303 306 310 311 311 310 308 307 305 302 301 298 296 293
145 144 150 157 160 153 151 153 150 149 152 151 149 150 155 158 160 164 162 154 153 155 154 165 168 156 152 141 120 106 101 99 95 93 91 87 84 81 78 74 71 66 63 62 55 52 43 34 32 22 16 12 9 6 2 2 1 0 7 14 2 343 344 344 333 327 325 323 316 308 310 312 312 315 316 317 318 317 315 312 308 305 302 299 297
149 148 152 154 150 145 146 150 151 150 149 148 148 150 154 157 162 162 153 139 125 123 123 119 117 114 112 108 103 99 97 95 91 90 91 91 92 90 87 83 79 72 66 62 58 55 52 47 43 38 26 18 17 13 10 13 10 12 20 38 40 322 332 357 31 345 336 338 337 331 330 324 321 324 326 327 328 329 330 328 325 321 317 311 307
150 151 154 154 151 146 144 144 145 148 148 147 151 153 153 151 145 132 125 122 116 113 112 109 108 106 104 101 98 96 94 91 88 86 85 83 81 77 73 68 64 62 59 55 53 48 45 42 39 39 29 18 16 10 9 9 9 14 22 35 55 308 326 343 352 343 342 2 346 331 330 326 331 338 340 342 342 344 345 344 343 341 338 334 328
154 155 156 155 154 149 147 147 147 151 152 150 152 149 140 133 127 121 122 121 117 113 110 108 106 103 100 97 94 92 88 84 80 75 71 67 64 62 59 56 54 54 52 46 42 38 35 33 32 33 29 22 17 11 10 10 10 13 19 21 339 352 7 315 337 350 352 342 324 328 336 330 334 342 342 344 344 346 347 347 348 348 347 345 342
160 160 158 158 158 155 155 156 156 157 154 146 142 136 130 127 126 125 126 122 116 113 111 109 106 102 97 93 88 84 79 74 69 63 60 57 54 52 50 46 43 39 36 32 30 29 26 24 24 24 22 24 22 15 11 11 14 15 20 31 17 4 348 335 349 350 271 325 317 328 338 330 333 340 341 341 342 342 343 343 344 346 347 345 344
166 164 162 162 161 161 164 166 165 158 150 142 136 132 130 129 129 128 126 121 117 113 110 107 103 98 92 86 80 74 67 60 56 51 48 46 42 40 36 32 29 26 25 23 22 21 18 17 17 17 17 20 19 16 13 12 14 15 20 31 29 3 345 347 357 324 313 322 317 328 332 325 330 336 338 339 339 340 339 340 340 340 341 341 340
169 167 166 166 164 165 166 162 157 150 143 138 134 132 131 129 128 126 122 119 117 114 109 105 100 95 88 83 76 69 60 50 45 40 36 33 30 27 24 21 19 18 17 14 12 12 12 11 11 11 12 12 11 10 13 11 9 10 15 18 15 7 357 354 351 336 329 323 323 331 327 323 328 331 334 334 334 336 335 335 336 334 335 336 335
171 169 169 168 163 161 157 152 149 144 139 135 132 130 128 126 124 122 121 120 118 114 111 108 104 100 96 91 82 73 62 49 40 33 28 26 22 19 17 15 13 12 10 7 8 9 8 8 8 6 5 5 5 6 7 5 4 4 5 4 1 0 357 351 344 341 333 324 325 327 321 323 326 327 329 329 329 330 330 331 332 331 331 331 331
172 170 167 163 158 155 151 148 145 141 138 134 132 130 127 126 124 126 127 124 121 118 116 115 113 111 107 101 93 82 69 56 44 34 27 22 17 15 14 11 9 9 8 7 8 7 4 2 2 1 1 3 3 4 3 1 1 358 356 355 352 349 348 344 338 335 333 327 323 322 322 323 324 324 325 326 326 326 326 326 326 327 328 328 329
169 165 161 157 154 152 150 147 144 141 138 136 135 133 131 130 129 132 134 130 128 125 123 123 121 120 115 106 100 87 75 63 50 38 27 19 16 13 10 8 8 7 7 6 5 2 1 1 1 2 3 4 3 2 1 359 358 355 352 351 348 346 344 341 337 334 332 327 320 319 322 323 322 322 323 325 324 323 322 322 322 324 324 324 325
165 162 159 157 154 152 151 149 146 145 142 139 140 138 137 138 137 137 139 135 130 127 128 128 127 128 122 112 107 95 83 70 51 37 24 17 13 10 7 6 6 5 4 3 2 1 2 2 3 3 2 1 360 358 357 355 351 348 347 345 343 343 341 337 334 331 329 326 320 318 320 321 319 318 321 323 322 323 323 324 324 324 323 324 324